Probability
0 0 0 0 0 0 0 0 0 0 0 1 5 15 27 27 11 0 0 0 0 0 0 0 0 0 0 0 0 0 0 0 0 0 0 0 0 0 0 0 0 0 0 0
0 0 0 0 0 0 0 0 0 0 1 5 8 13 21 21 10 1 0 0 0 0 0 0 0 0 0 0 0 0 0 0 0 0 0 0 0 0 0 0 0 0 0 0
0 0 0 0 0 0 0 0 0 1 6 17 26 24 19 14 7 2 1 0 0 0 0 0 0 0 0 0 0 0 0 0 0 0 0 0 0 0 0 0 0 0 0 0
0 0 0 0 0 0 0 0 0 3 8 20 34 32 17 8 4 2 1 0 0 0 0 0 0 0 0 0 0 0 0 0 0 0 0 0 0 0 0 0 0 0 0 0
0 0 0 0 0 0 0 0 0 2 4 9 16 16 9 3 2 1 0 0 0 0 0 0 0 0 0 0 0 0 0 0 0 0 0 0 0 0 0 0 0 0 0 0
0 0 0 0 0 0 0 0 0 0 0 0 0 2 3 2 0 0 0 0 0 0 0 0 0 0 0 0 0 0 0 0 0 0 0 0 0 0 0 0 0 0 0 0
0 0 0 0 0 0 0 0 0 0 0 0 0 1 1 1 0 0 0 0 0 0 0 0 0 0 0 0 0 0 0 0 0 0 0 0 0 0 0 0 0 0 0 0
0 0 0 0 0 0 0 0 0 0 0 0 0 0 0 0 0 0 0 0 0 0 0 0 0 0 0 0 0 0 0 0 0 0 0 0 0 0 0 0 0 0 0 0
0 0 0 0 0 0 0 0 0 0 0 0 0 0 0 0 0 0 0 0 0 0 0 0 0 0 0 0 0 0 0 0 0 0 0 0 0 0 0 0 0 0 0 0
0 0 0 0 0 0 0 0 0 0 0 0 0 0 0 0 0 0 0 0 0 0 0 0 0 0 0 0 0 0 0 0 0 0 0 0 0 0 0 0 0 0 0 0
0 0 0 0 0 0 0 0 0 0 0 0 0 0 0 0 0 0 0 0 0 0 0 0 0 0 0 0 0 0 0 0 0 0 0 0 0 0 0 0 0 0 0 0
0 0 0 0 0 0 0 0 0 0 0 0 0 0 0 0 0 0 0 0 0 0 0 0 0 0 0 0 0 0 0 0 0 0 0 0 0 0 0 0 0 0 0 0
0 0 0 0 0 0 0 0 0 0 0 0 0 0 0 0 0 0 0 0 0 0 0 0 0 0 0 0 0 0 0 0 0 0 0 0 0 0 0 0 0 0 0 0
0 0 0 0 0 0 0 0 0 0 0 0 0 0 0 0 0 0 0 0 0 0 0 0 0 0 0 0 0 0 0 0 0 0 0 0 0 0 0 0 0 0 0 0
0 0 0 0 0 0 0 0 0 0 0 0 0 0 0 0 0 0 0 0 0 0 0 0 0 0 0 0 0 0 0 0 0 0 0 0 0 0 0 0 0 0 0 0
0 0 0 0 0 0 0 0 0 0 0 0 0 0 0 0 0 0 0 0 0 0 0 0 0 0 0 0 0 0 0 0 0 0 0 0 0 0 0 0 0 0 0 0
0 0 0 0 0 0 0 0 0 0 0 0 0 0 0 0 0 0 0 0 0 0 0 0 0 0 0 0 0 0 0 0 0 0 0 0 0 0 0 0 0 0 0 0
0 0 0 0 0 0 0 0 0 0 0 0 0 0 0 0 0 0 0 0 0 0 0 0 0 0 0 0 0 0 0 0 0 0 0 0 0 0 0 0 0 0 0 0
0 0 0 0 0 0 0 0 0 0 0 0 0 0 0 0 0 0 0 0 0 0 0 0 0 0 0 0 0 0 0 0 0 0 0 0 0 0 0 0 0 0 0 0
0 0 0 0 0 0 0 0 0 0 0 0 0 0 0 0 0 0 0 0 0 0 0 0 0 0 0 0 0 0 0 0 0 0 0 0 0 0 0 0 0 0 0 0
0 0 0 0 0 0 0 0 0 0 0 0 0 0 0 0 0 0 0 0 0 0 0 0 0 0 0 0 0 0 0 0 0 0 0 0 0 0 0 0 0 0 0 0
0 0 0 0 0 0 0 0 0 0 0 0 0 0 0 0 0 0 0 0 0 0 0 0 0 0 0 0 0 0 0 0 0 0 0 0 0 0 0 0 0 0 0 0
0 0 0 0 0 0 0 0 0 0 0 0 0 0 0 0 0 0 0 0 0 0 0 0 0 0 0 0 0 0 0 0 0 0 0 0 0 0 0 0 0 0 0 0
0 0 0 0 0 0 0 0 0 0 0 0 0 0 0 0 0 0 0 0 0 0 0 0 0 0 0 0 0 0 0 0 0 0 0 0 0 0 0 0 0 0 0 0
0 0 0 0 0 0 0 0 0 0 0 0 0 0 0 0 0 0 0 0 0 0 0 0 0 0 0 0 0 0 0 0 0 0 0 0 0 0 0 0 0 0 0 0
0 0 0 0 0 0 0 0 0 0 0 0 0 0 0 0 0 0 0 0 0 0 0 0 0 0 0 0 0 0 0 0 0 0 0 0 0 0 0 0 0 0 0 0
0 0 0 0 0 0 0 0 0 0 0 0 0 0 0 0 0 0 0 0 0 0 0 0 0 0 0 0 0 0 0 0 0 0 0 0 0 0 0 0 0 0 0 0
Wind_Speed
6 4 6 6 8 9 11 11 10 9 5 2 2 6 8 11 14 16 15 14 12 12 12 10 9 8 8 7 5 3 3 2 1 1 2 4 6 8 9 10 9 9 9 9
11 8 9 13 14 15 16 15 15 16 13 5 2 5 8 11 15 16 16 15 13 12 12 10 8 7 7 6 4 2 1 1 1 2 5 6 7 8 7 7 7 7 7 8
12 7 10 15 10 11 13 13 13 13 8 6 3 5 7 10 13 14 15 14 13 11 8 7 7 7 5 6 3 2 2 3 2 3 4 5 6 6 6 6 7 7 8 8
8 5 12 2 7 6 7 6 10 11 9 10 9 5 3 6 9 12 13 12 12 10 9 7 6 6 2 4 3 2 2 3 3 4 5 5 5 6 7 7 8 8 8 8
6 10 10 1 6 7 7 1 9 10 10 8 5 1 2 3 2 9 13 13 13 11 9 8 6 4 1 2 4 3 3 3 5 5 5 6 6 7 7 8 7 8 7 7
6 7 6 5 7 5 5 4 10 12 11 8 2 4 3 6 9 13 14 14 13 10 9 8 6 3 1 1 1 3 5 6 6 6 6 6 6 7 6 7 7 8 8 7
8 8 4 7 7 4 7 5 12 13 12 6 2 3 7 10 13 14 15 15 13 10 7 5 5 5 2 1 5 5 4 6 5 5 4 5 6 5 6 5 6 7 8 7
6 8 5 8 8 6 10 13 13 12 8 6 8 10 11 12 13 14 14 13 11 9 8 7 5 4 4 5 6 5 5 5 4 5 6 6 6 4 3 5 6 7 8 7
4 5 5 6 8 10 12 14 12 9 2 9 12 14 14 13 13 13 13 11 10 11 10 7 5 4 7 6 6 6 5 5 5 6 6 6 4 5 6 6 6 8 8 8
7 8 7 10 12 10 10 11 7 1 8 14 16 16 15 13 11 11 12 13 13 12 11 8 6 6 7 7 6 5 5 5 5 6 5 5 6 7 7 7 7 6 7 7
12 11 10 8 6 10 8 3 7 11 13 17 16 15 14 13 12 11 11 10 9 10 9 8 7 8 7 6 5 5 5 5 5 5 6 6 6 7 8 8 6 6 8 9
11 10 9 11 11 7 3 13 14 16 16 14 14 16 16 14 13 12 11 10 10 9 8 9 9 9 7 6 5 4 4 5 5 5 7 6 4 2 3 2 1 2 5 7
11 9 10 9 4 5 14 14 11 12 16 17 16 15 16 14 12 13 12 11 9 9 9 10 9 9 8 7 7 7 6 5 4 5 5 5 6 7 7 5 1 1 5 9
8 5 3 8 11 16 16 12 11 14 17 15 12 12 13 13 12 11 11 10 9 9 10 10 10 9 8 7 7 6 5 2 5 6 7 7 6 6 6 6 7 6 7 8
9 14 15 16 16 14 13 12 15 15 15 14 12 13 13 12 12 11 10 9 9 10 10 10 10 9 8 7 7 8 8 7 6 6 6 5 5 5 4 4 6 6 8 10
14 12 9 12 13 13 13 13 14 14 14 13 12 12 12 12 12 10 8 8 9 9 9 10 9 8 7 6 6 7 8 6 6 6 6 6 6 6 6 7 8 8 8 9
10 8 9 11 10 10 13 13 13 13 12 12 12 12 12 12 11 9 9 10 10 9 9 9 8 7 7 6 6 6 6 5 4 7 7 7 7 6 5 5 6 7 7 9
7 8 9 11 10 11 12 13 12 12 12 12 12 11 11 10 9 9 9 10 10 10 9 8 7 7 7 7 6 6 5 6 6 7 7 7 7 8 8 8 9 8 8 7
10 12 11 11 11 11 12 13 13 12 12 11 11 10 10 11 11 10 11 11 11 10 9 9 5 5 8 7 7 4 5 6 6 7 7 7 7 8 8 7 6 5 6 7
11 13 13 12 11 12 13 13 13 11 11 11 13 12 12 12 11 11 11 10 9 9 9 7 6 6 7 3 6 3 6 6 7 7 7 7 8 8 8 7 8 8 8 7
6 11 12 12 12 12 11 11 11 11 12 12 12 12 11 10 9 8 9 10 9 8 7 4 5 6 5 0 2 5 7 7 7 7 7 7 7 8 8 9 9 9 9 8
5 9 11 12 12 11 11 11 11 10 9 10 12 11 9 8 7 7 8 9 9 5 5 7 8 7 3 3 5 8 8 7 7 7 7 7 8 8 8 8 8 9 9 9
8 9 10 11 12 12 12 12 12 11 9 10 10 8 7 7 6 7 9 8 7 2 7 10 7 1 6 2 7 7 8 7 7 7 7 7 7 8 8 8 8 8 8 8
8 9 10 10 11 11 10 10 10 10 9 9 8 8 8 7 6 9 9 9 8 6 10 8 3 4 4 6 6 7 7 7 7 8 7 7 8 8 8 8 7 7 7 8
9 10 10 9 9 9 9 8 8 9 8 8 8 7 6 6 8 9 9 10 8 9 10 6 4 5 2 7 7 8 8 8 8 7 8 8 8 8 7 7 7 7 8 8
10 9 9 9 8 8 7 7 7 7 8 8 8 7 7 7 8 8 9 9 9 9 9 7 4 4 7 8 8 8 8 7 6 7 8 8 8 8 8 8 8 8 8 9
11 11 9 7 6 6 5 5 6 7 7 9 8 8 8 7 7 9 9 9 8 7 7 7 7 6 7 7 7 7 7 7 7 7 7 7 7 7 7 8 8 8 8 9
Wind_Direction
301 320 304 298 289 285 281 290 293 299 292 306 136 206 187 158 168 166 160 158 155 156 141 139 134 113 101 96 104 131 150 156 148 211 268 282 293 303 306 304 309 314 317 318
277 272 282 282 276 274 274 277 279 279 281 340 4 204 194 173 176 171 164 164 160 151 150 141 122 120 120 114 115 126 146 188 170 267 287 297 305 310 318 335 340 337 336 332
270 280 288 273 292 295 286 284 285 285 327 355 299 233 221 195 190 179 169 162 151 136 130 116 109 97 103 128 136 187 218 256 268 288 306 329 333 343 353 351 344 337 332 332
272 265 255 28 28 341 313 331 350 324 344 341 337 347 282 229 199 171 156 139 130 123 109 92 94 99 110 104 112 198 215 294 333 359 9 23 4 1 357 347 341 339 334 329
244 243 257 335 42 1 330 350 36 353 350 347 15 354 19 353 159 147 133 125 121 116 109 104 91 66 73 139 146 212 290 353 31 43 46 16 3 2 353 343 349 335 333 336
233 249 255 64 35 349 287 271 32 1 353 344 318 289 75 92 100 103 106 109 109 106 108 121 133 134 300 321 357 1 17 53 65 47 22 10 2 356 351 340 353 343 343 335
224 240 267 57 8 315 260 348 353 343 346 352 18 69 101 103 100 101 103 105 105 104 111 122 116 114 111 27 38 32 81 92 68 34 8 0 352 357 340 340 354 338 324 319
230 241 250 23 341 328 331 327 324 323 349 64 102 106 103 101 101 103 101 101 103 115 128 138 152 144 119 66 73 95 99 85 56 17 355 357 347 334 330 8 350 342 335 334
282 289 345 337 308 306 306 306 310 299 56 118 118 110 106 105 104 106 111 123 135 134 138 144 144 104 84 89 103 109 99 71 38 17 9 357 344 354 19 18 2 357 347 340
274 268 313 313 308 310 313 310 304 301 126 126 120 117 114 113 116 124 137 140 142 143 137 137 123 96 94 102 110 112 87 56 38 42 10 23 21 32 21 14 10 351 340 338
267 279 290 289 324 342 340 358 86 101 120 123 124 121 119 124 132 139 133 126 124 120 117 106 100 98 100 110 119 96 67 43 32 57 50 47 40 23 22 33 14 348 349 339
292 329 320 327 346 354 78 109 114 115 113 117 123 131 130 128 126 123 120 120 124 125 115 108 106 106 107 107 90 61 56 63 33 36 49 37 30 89 117 72 338 334 342 331
300 307 309 319 337 100 109 108 119 134 128 123 124 122 120 119 119 122 128 130 119 108 107 109 108 101 95 86 69 53 38 30 53 40 38 41 24 20 17 8 307 308 4 350
289 261 74 86 100 105 107 122 124 100 96 100 110 115 115 117 123 119 112 106 106 107 109 107 98 93 89 82 72 70 77 24 23 36 30 38 24 27 17 359 356 360 6 358
112 118 106 105 101 104 118 128 118 114 121 132 134 123 122 124 119 114 108 105 105 106 107 104 98 94 91 84 69 50 39 31 30 46 37 35 37 24 17 8 6 1 359 360
105 101 105 117 134 147 147 139 127 124 128 132 127 120 116 113 113 107 103 104 95 98 101 100 102 107 104 91 91 92 77 28 357 28 30 23 38 42 20 21 22 4 7 6
116 126 140 137 139 141 135 132 125 120 128 130 123 118 118 122 120 106 93 83 83 92 103 108 110 109 99 81 68 66 69 67 27 36 32 24 34 49 56 40 30 4 12 33
136 127 123 119 122 124 122 122 122 125 125 123 129 128 128 124 113 102 100 99 96 98 99 102 100 103 93 74 63 65 60 53 45 42 41 34 29 39 34 41 47 17 8 23
114 97 91 99 110 119 122 119 114 115 123 133 132 121 115 112 107 104 104 107 109 103 97 98 103 100 80 39 344 53 55 51 49 44 38 39 38 47 43 26 48 64 32 5
88 96 98 99 104 112 116 117 118 124 130 126 118 118 120 115 106 98 94 83 75 85 100 124 136 104 98 67 302 25 56 47 44 51 42 38 36 41 45 36 24 32 43 31
104 109 108 108 112 115 118 119 124 127 124 125 123 117 119 117 107 108 114 106 100 103 112 126 105 100 97 59 309 55 55 50 48 43 41 39 41 40 36 30 28 29 30 27
144 107 102 110 116 118 120 124 134 133 126 124 116 118 124 123 109 82 78 101 115 150 122 96 77 57 45 312 58 61 59 54 50 46 42 39 38 39 37 30 27 29 26 27
140 118 116 121 126 127 124 126 130 130 128 121 122 134 134 116 116 122 113 111 116 110 82 85 91 108 282 34 69 67 63 57 54 51 41 41 44 44 40 34 28 30 30 23
140 131 120 125 138 139 130 123 123 119 112 109 114 126 133 122 99 90 96 92 93 89 89 99 131 266 289 76 72 68 63 55 53 51 48 42 44 45 42 38 30 29 34 30
158 148 137 141 153 144 132 131 131 124 119 116 122 126 122 116 116 115 114 116 134 121 110 129 196 248 76 74 70 67 64 53 35 42 49 42 42 43 39 42 40 26 32 33
157 166 155 166 155 144 148 164 164 155 136 126 120 119 112 111 118 120 120 124 127 128 131 141 127 94 81 75 71 66 61 61 63 50 47 46 44 42 41 39 41 40 38 34
158 152 151 168 171 152 141 147 152 159 160 134 119 126 128 129 128 124 127 132 134 128 118 112 100 85 87 88 83 79 79 69 49 46 53 50 46 43 41 41 42 41 44 44